FENGYUN 1C DEB

Satellite information

Favourite Embed

Satellite Type and Status

DEBRISIN ORBIT

Key statistics

Satellite FENGYUN 1C DEB at a glance.

Uptime

9714

Days in orbit

Revolutions

≈ 13.9

Per day

Orbit

SSO

Sun Synchronous Orbit

Inclination

99.9

Latest

Satellite identification and parameters

Extended collection of information and parameters for FENGYUN 1C DEB.

Object identification

Identified? True

Debris? True

Object name: FENGYUN 1C DEB

International designator: 1999-025NY

Object number (NORAD): 30047

Object ID (CCSDS): 30047

Country: PEOPLES REPUBLIC OF CHINA (PRC)

Current information (Y/N): Y

RCS size: SMALL

Orbital parameters

Period: 103.274 minutes

Inclination: 99.9193 deg

SMA: 7291.55 km

Apoapsis: 1005.024 km

Periapsis: 821.805 km

RAAN: 143.1479 deg

Eccentricy: 0.01256381

Argument of periapsis: 324.2626 deg

Mean anomaly: 219.124 deg

Mean motion: 13.94353882 rev/day

Mean motion (dot): 0.00001341 rev/day2

B* drag term: 0.00098020348 1/REarth

Two-line elements (TLE)

Creation date: Dec. 12, 2025, 10:14 a.m.

Reference frame: TEME

Reference center: EARTH

Epoch: Dec. 12, 2025, 4:42 a.m. UTC

TLE line 0: 0 FENGYUN 1C DEB

TLE line 1: 1 30047U 99025NY 25346.19598706 .00001341 00000-0 98020-3 0 9995

TLE line 2: 2 30047 99.9193 143.1479 0125638 324.2626 219.1240 13.94353882959081

Live tracking on map

Real-time ground track for satellite FENGYUN 1C DEB.

In-orbit conjunctions

A list of the most updated potential collisions computed for object FENGYUN 1C DEB.

Target Orbit TCA Probability of collision Miss distance Type
SECOR 3 LEO 2025-11-22 18:30:40 0.0002041717 128.0 (m) PAYLOAD
FENGYUN 1C DEB SSO 2025-10-05 05:26:19 0.0001425451 120.0 (m) DEBRIS
COSMOS 1655 LEO 2025-04-04 01:05:26 0.0001219104 434.0 (m) PAYLOAD
COSMOS 1275 DEB LEO 2024-11-12 02:17:44 0.0001062367 941.0 (m) DEBRIS

Associated space launch

Chinese polar orbiting meteorological satellite

FENGYUN 1C DEB was lifted into orbit during the mission ‘Long March 4B | Feng Yun 1C’, on board a Long March 4B space rocket.

The launch took place on May 10, 1999, 1:33 a.m. from Launch Complex 7.

For more information about the launch, click the button.

Launch to space Long March 4B | Feng Yun 1C
Long March 4B | Feng Yun 1C

Agency: N/A

Status: Launch Successful

Launch date: May 10, 1999, 1:33 a.m. UTC

Rocket: Long March 4B

Launch pad: Launch Complex 7

Location: Taiyuan Satellite Launch Center, People's Republic of China

...

Latest news about this satellite

There are no fresh news available about this satellite. Check back as we update our databases every day.


Newsletter sign-up

Weekly statistics, charts and insights to help you stay on top of the space industry.